User: anonymous   Login
Location: Hawaiian Village Mobile Home Park
(32.8359°N, 116.9792°W)
Time: 07:56:23
(UTC+00:00)
Language:

ADEOS - Orbit

View from above orbital plane
View from above orbital plane
View from above satellite
View from above satellite

Ground track
Ground track

The orbit data is extracted from the following two-line orbital elements,

1 24277U 96046A   22275.81046020  .00000204  00000-0  98011-4 0  9995
2 24277  98.9378 281.4304 0002256  92.2041 267.9398 14.29574884362246
Epoch (UTC): 02 October 2022 19:27:03
Eccentricity: 0.0002256
inclination: 98.9378°
perigee height: 791 km
apogee height: 795 km
right ascension of ascending node: 281.4304°
argument of perigee: 92.2041°
revolutions per day: 14.29574884
mean anomaly at epoch: 267.9398°
orbit number at epoch: 36224

The dashed part of the orbit path shows where the satellite is in the earth's shadow,  

DLR